Location: Newark
(44.3248°N, 23.7839°E)
Time: 14:01:13
(UTC+00:00)

CAS-6 - Pass Details

Date: 01 May 2024
Orbit: 607 x 628 km, 97.8° (Epoch: 26 May)

Event Time Altitude Azimuth Distance (km) Brightness Sun altitude
Exits shadow 22:04:40 10° 284° (WNW) 1,974 ? -30.1°
Drops below altitude 10° 22:04:43 10° 284° (WNW) 1,979 ? -30.1°
Sets 22:08:52 0° 324° (NW) 2,886 ? -30.2°
